Location: White Sands National Monument
(32.8140°N, 106.2665°W)
Time: 05:59:42
(UTC-07:00)

Daily predictions for brighter satellites

Satellite Brightness Start Highest point End
(mag) Time Altitude Azimuth Time Altitude Azimuth Time Altitude Azimuth
CZ-3 R/B 4.1 02:35:05 10° W 03:30:54 64° SSW 03:42:20 10° SE
Cosmos 2333 Rocket 2.7 04:32:19 54° SE 04:32:19 54° SE 04:36:49 10° SSE
Thor Agena Rocket 4.1 04:32:01 10° SSE 04:36:33 57° ESE 04:36:33 57° ESE
NOSS 0 Rocket 3.8 04:48:17 82° SSW 04:48:17 82° SSW 04:54:13 10° SSE
Cosmos 2219 Rocket 3.1 04:52:59 35° S 04:52:59 35° S 04:56:14 10° S
Cosmos 836 Rocket 4.5 04:52:27 81° ESE 04:52:27 81° ESE 04:57:34 10° SSE
COSMO-SKYMED 1 4.2 04:51:37 10° SE 04:55:30 33° ENE 04:58:24 16° NNE
Cosmos 371 Rocket 3.7 04:59:50 54° S 04:59:50 54° S 05:03:34 10° SSE
Cosmos 968 Rocket 4.0 04:59:38 10° S 05:04:47 60° ESE 05:09:58 10° NNE
NOAA 6 3.9 05:04:31 10° N 05:09:44 83° WNW 05:14:55 10° SSW
GPS 2-05 Rocket1 3.6 05:17:45 47° E 05:17:45 47° E 05:20:15 10° ENE
Cosmos 1816 Rocket 4.4 05:11:20 10° N 05:17:41 88° E 05:23:54 10° S
Cosmos 2237 Rocket 2.2 05:18:04 49° WNW 05:19:11 58° WSW 05:24:44 10° S
Tiangong 2 4.3 05:19:50 10° SSE 05:20:46 11° SE 05:21:42 10° ESE
SL-16 R/B 2.7 05:17:40 13° N 05:22:35 59° ENE 05:28:09 10° SSE
USA 229 DEB 3.9 05:21:03 18° NNW 05:26:41 75° ENE 05:33:56 10° SE
USA 229 4.0 05:21:07 18° NNW 05:26:48 74° ENE 05:34:01 10° SE
Cosmos 220 Rocket 3.9 05:22:41 10° SSW 05:27:06 70° WNW 05:31:30 10° NNE
Cosmos 2297 Rocket 3.2 05:28:51 27° NNW 05:28:51 27° NNW 05:32:16 10° N
Tsikada Rocket 4.0 05:21:17 10° NNW 05:27:32 62° W 05:33:43 10° S
Aureole 2 Rocket 2.8 05:31:11 30° NNW 05:33:16 89° W 05:37:24 10° SSE
DELTA 2 R/B (1) 3.9 05:30:38 19° SW 05:34:32 63° SSE 05:40:01 10° ENE
Cosmos 783 Rocket 4.4 05:31:53 19° NNW 05:35:39 76° WSW 05:40:52 10° S
Cosmos 1271 Rocket 3.3 05:32:17 10° S 05:36:05 58° E 05:39:50 10° NNE
Cosmos 2227 Rocket 4.0 05:42:32 14° NNW 05:42:32 14° NNW 05:43:47 10° NNW
ISS -0.9 05:38:40 13° N 05:40:01 16° NNE 05:42:11 10° ENE
Cosmos 540 Rocket 3.6 05:38:29 29° NW 05:40:40 48° WSW 05:45:34 10° S
Meteor 1-16 Rocket 4.0 05:35:48 10° S 05:41:18 87° W 05:46:41 10° N
Meteor 1-28 Rocket 3.3 05:37:41 10° SSE 05:41:27 73° ENE 05:45:12 10° N
SKYMED 2 3.5 05:39:13 10° S 05:43:30 62° W 05:47:04 15° NNW
Cosmos 1464 Rocket 4.5 05:37:24 10° S 05:43:40 64° E 05:49:54 10° NNE
SL-14 R/B 3.8 05:40:21 10° N 05:44:22 62° E 05:48:23 10° SSE
Meteor 1-4 Rocket 2.8 05:40:50 10° SSW 05:44:22 47° W 05:48:00 10° N
OAO 2 Rocket 3.3 05:43:00 33° WNW 05:45:07 68° N 05:50:03 10° E
CZ-3 Stage 3 2.7 05:44:40 28° W 05:46:58 70° S 06:02:43 10° ESE
IDEFIX/ARIANE 42P 4.1 05:42:59 10° NNE 05:47:56 40° E 05:52:50 10° SSE
Cosmos 304 Rocket 3.7 05:43:38 10° NNW 05:48:22 90° W 05:53:08 10° SSE
Cosmos 1674 4.4 05:59:03 17° WSW 05:59:03 17° WSW 06:00:38 10° SW
CZ-4 R/B 2.3 05:54:28 10° NNE 05:58:26 51° E 06:02:26 10° S
Meteor 2-1 Rocket 4.2 05:54:18 10° S 05:59:51 86° E 06:05:33 10° N
Meteor 2-12 Rocket 4.5 05:55:46 10° S 06:01:53 90° E 06:08:04 10° N
Cosmos 1072 Rocket 4.4 05:56:46 10° S 06:02:59 79° W 06:09:09 10° N
PSLV R/B 3.7 06:02:30 26° W 06:04:02 44° NNW 06:07:17 10° NE
Cosmos 1626 4.3 06:00:48 10° NNE 06:04:04 28° E 06:07:18 10° SE
Cosmos 1538 Rocket 4.1 05:58:39 10° NNW 06:04:04 85° ENE 06:09:24 10° SSE
BREEZE-M DEB (TANK) 4.0 06:04:47 18° WNW 06:06:56 25° WSW 06:09:21 10° S
USA 234 4.3 06:01:14 10° ESE 06:07:14 40° NE 06:13:15 10° NNW
BREEZE-M DEB (TANK) 3.6 05:54:54 11° NW 06:08:13 71° SW 06:11:59 10° SE
Aureole 1 4.1 06:06:40 10° SSW 06:09:37 64° WNW 06:12:50 10° N
Cosmos 2221 2.4 06:06:22 10° SSW 06:10:42 70° W 06:15:01 10° N
IUS-9 SRM-1 3.4 06:08:34 10° WSW 06:12:48 27° SSW 06:14:44 10° SE
Cosmos 2333 Rocket 3.9 06:14:23 12° W 06:14:41 12° W 06:16:46 10° WSW
Ariane Rocket 3.5 06:11:40 10° N 06:16:22 38° WNW 06:21:03 10° SW
Cosmos 389 Rocket 4.0 06:17:13 10° SSE 06:20:40 42° E 06:24:09 10° NNE
NOSS 3-1 (C) 4.3 06:14:25 10° NNW 06:22:15 76° ENE 06:30:41 10° SE
Cosmos 1908 4.3 06:19:02 10° SSE 06:22:43 48° E 06:26:25 10° NNE
CSL-04 Debris 4.3 06:17:59 10° N 06:23:17 51° WNW 06:28:31 10° SSW
Cosmos 1603 4.0 06:20:48 10° NNW 06:26:25 74° ENE 06:32:04 10° SSE
MSX 4.5 06:22:13 10° NNE 06:27:57 63° ESE 06:33:39 10° S
Cosmos 2263 Rocket 3.2 06:24:40 10° S 06:30:08 53° ESE 06:35:40 10° NNE
COSMO-SKYMED 1 4.2 06:28:59 10° SW 06:31:41 16° W 06:34:24 10° NW
Cosmos 2058 3.3 06:28:01 10° NNW 06:31:55 42° W 06:35:49 10° SSW
Cosmos 2228 Rocket 4.1 06:28:06 10° SSE 06:32:25 51° E 06:36:43 10° NNE
AQUARIUS 4.1 06:28:48 10° N 06:33:19 75° WNW 06:37:47 10° SSW
Atlas 2A Centaur Rocket 2.9 06:39:11 10° WSW 06:41:33 21° S 06:43:12 10° SE
Cosmos 292 Rocket 4.1 06:39:08 10° NNW 06:43:55 74° ENE 06:48:42 10° SSE
CZ-2C R/B 2.5 06:40:57 10° N 06:45:20 47° WNW 06:49:42 10° SSW
Helios 1B rocket 2.7 06:41:42 10° SSE 06:45:47 76° ENE 06:49:53 10° N
Cosmos 1805 Rocket 3.7 06:42:12 10° NNW 06:46:30 53° W 06:50:45 10° S
